Location: Raleigh
(35.7720°N, 78.6390°W)
Time: 15:45:53
(UTC-04:00)

Amateur Radio Satellites - All Passes

Search period start: 07 July 2015 15:15
Search period end: 08 July 2015 15:15
Location: Raleigh, 35.7720°N, 78.6390°W

Satellite Date Start Highest point End Downlink Frequencies (MHz)
Time Altitude Azimuth
BEESAT 3 07 Jul 15:17:41 15:20:44 21° 50° (NE) 15:23:50 437.485
BEESAT 07 Jul 15:23:11 15:27:56 60° 285° (WNW) 15:32:38 436.000
Oscar 19 07 Jul 15:26:51 15:29:12 13° 270° (W) 15:31:13 437.125/150
BEESAT 2 07 Jul 15:34:29 15:37:49 24° 52° (NE) 15:41:09 435.950
AO-7 07 Jul 15:38:30 15:46:17 47° 66° (ENE) 15:54:13 29.400- 29.500
SWISSCUBE 07 Jul 15:39:36 15:44:01 37° 288° (WNW) 15:48:23 437.505
HORYU 2 07 Jul 15:40:47 15:44:36 30° 71° (ENE) 15:48:28 437.375
ITAMSAT 1 07 Jul 15:42:52 15:47:34 33° 263° (W) 15:52:15 435.822/435.867
KKS-1 07 Jul 15:43:36 15:47:38 35° 97° (E) 15:51:42 437.445
ITUPSAT 1 07 Jul 15:46:36 15:50:59 35° 289° (WNW) 15:55:18 437.325
Cosmos 2504 07 Jul 15:53:27 15:58:13 18° 68° (ENE) 16:03:37 435.465 / 435.565
Gurwin Techsat 1B 07 Jul 15:56:54 16:01:13 24° 266° (W) 16:05:26 435.225
AIST 1 07 Jul 16:08:14 16:12:35 60° 278° (W) 16:16:58
JUGNU 07 Jul 16:15:57 16:19:24 16° 174° (S) 16:22:52 437.505
JAS-2 07 Jul 16:20:12 16:25:17 61° 260° (W) 16:30:38 435.910
STARS 07 Jul 16:26:59 16:31:21 67° 101° (ESE) 16:35:41 437.465
PCSat 07 Jul 16:30:51 16:35:36 30° 306° (NW) 16:40:19 145.827
O/OREOS (USA 219) 07 Jul 16:35:23 16:38:53 22° 60° (ENE) 16:42:29 437.305
SO-50 07 Jul 16:37:24 16:42:05 77° 301° (WNW) 16:46:58 436.795
YUBILEINY 07 Jul 16:49:53 16:56:03 21° 277° (W) 17:01:45 435.215
BEESAT 3 07 Jul 16:55:11 16:58:45 30° 246° (WSW) 17:02:12 437.485
Cosmos 2491 07 Jul 17:07:58 17:15:31 29° 290° (WNW) 17:22:47 435.465 / 435.565
BEESAT 2 07 Jul 17:12:26 17:15:49 25° 247° (WSW) 17:19:06 435.950
AIST 2 07 Jul 17:14:58 17:19:09 71° 60° (ENE) 17:23:15 435.215
SRMSAT 07 Jul 17:15:10 17:17:56 13° 170° (S) 17:20:47 437.500
HORYU 2 07 Jul 17:17:55 17:21:17 20° 266° (W) 17:24:32 437.375
KKS-1 07 Jul 17:20:57 17:24:03 18° 291° (WNW) 17:27:01 437.445
AO-7 07 Jul 17:31:44 17:39:15 35° 263° (W) 17:46:40 29.400- 29.500
Cubesat XI-IV 07 Jul 17:39:53 17:43:32 19° 66° (ENE) 17:47:21 437.490
Cosmos 2504 07 Jul 17:43:33 17:51:14 77° 265° (W) 17:59:27 435.465 / 435.565
MOZHAYETS 4 07 Jul 18:01:45 18:06:23 67° 284° (WNW) 18:10:59
JUGNU 07 Jul 18:04:08 18:07:42 16° 184° (S) 18:11:15 437.505
O/OREOS (USA 219) 07 Jul 18:14:21 18:18:21 30° 256° (WSW) 18:22:18 437.305
SO-50 07 Jul 18:22:17 18:23:34 11° 320° (NW) 18:24:36 436.795
CUBESAT XI-V 07 Jul 18:38:48 18:42:22 22° 93° (E) 18:46:02 437.345
CUTE-I 07 Jul 18:42:34 18:47:55 77° 76° (ENE) 18:53:19 437.470
BRITE-PL 07 Jul 18:54:40 18:55:16 10° 66° (ENE) 18:56:14 437.365/2234.400
SRMSAT 07 Jul 19:02:42 19:06:23 17° 180° (S) 19:10:04 437.500
Cubesat XI-IV 07 Jul 19:18:06 19:23:17 49° 261° (W) 19:28:30 437.490
STRAND 1 07 Jul 19:20:21 19:24:03 20° 93° (E) 19:27:53 437.568
GONETS M04 07 Jul 19:28:40 19:35:44 28° 70° (ENE) 19:43:03
Cosmos 2504 07 Jul 19:40:26 19:42:35 11° 278° (W) 19:44:01 435.465 / 435.565
DANDE 07 Jul 19:41:31 19:44:07 65° 263° (W) 19:46:43 436.750
GOMX 1 07 Jul 19:46:55 19:50:34 21° 71° (ENE) 19:54:11 467.674
JUGNU 07 Jul 19:54:53 19:55:59 10° 194° (SSW) 19:56:58 437.505
CUSAT 1 07 Jul 19:55:40 19:57:35 18° 264° (W) 19:59:32 437.405
HO-68 07 Jul 19:56:40 20:02:25 28° 64° (ENE) 20:08:21 435.675
DOVE 4 07 Jul 20:13:36 20:17:18 23° 72° (ENE) 20:20:56 437.250
CUBESAT XI-V 07 Jul 20:15:44 20:19:51 31° 289° (WNW) 20:23:52 437.345
CUTE-I 07 Jul 20:27:06 20:28:41 11° 272° (W) 20:29:51 437.470
BRITE-PL 07 Jul 20:27:49 20:33:18 87° 253° (WSW) 20:38:26 437.365/2234.400
COMPASS 1 07 Jul 20:29:20 20:31:53 16° 69° (ENE) 20:34:35 437.405
PRISM 07 Jul 20:32:57 20:37:07 65° 285° (WNW) 20:41:12 437.425
CINEMA 3 07 Jul 20:34:08 20:36:42 16° 70° (ENE) 20:39:23 145.822/145.860
CUTE 1.7 + AOD 2 07 Jul 20:49:33 20:53:33 45° 75° (ENE) 20:57:37 437.475
SRMSAT 07 Jul 20:52:01 20:54:49 13° 190° (S) 20:57:33 437.500
CANX-2 07 Jul 20:53:21 20:57:28 58° 76° (ENE) 21:01:39 2200.000
STRAND 1 07 Jul 20:58:38 21:03:26 40° 288° (WNW) 21:08:10 437.568
CUBEBUG 2 07 Jul 20:59:03 21:00:53 13° 69° (ENE) 21:02:56 437.445
Cosmos 2499 07 Jul 21:02:36 21:08:40 24° 70° (ENE) 21:15:21 435.465 / 435.565
FUNcube-1 07 Jul 21:20:02 21:21:49 13° 68° (ENE) 21:23:48 145.935
GOMX 1 07 Jul 21:23:44 21:28:31 38° 262° (W) 21:32:59 467.674
GONETS M04 07 Jul 21:24:40 21:33:05 56° 269° (W) 21:41:26
DELFI C3 07 Jul 21:25:42 21:28:22 18° 70° (ENE) 21:31:11 145.870
M-CUBED/EXP-1 PRIME 07 Jul 21:27:06 21:30:53 28° 101° (E) 21:34:56 437.505
SEEDS 07 Jul 21:31:51 21:35:59 66° 259° (W) 21:40:10 437.485
AAUSAT CUBESAT 2 07 Jul 21:33:43 21:37:51 84° 78° (ENE) 21:42:01 437.432
UWE-3 07 Jul 21:40:27 21:44:08 30° 72° (ENE) 21:47:49 435.000/436.395/437.385
HO-68 07 Jul 21:42:55 21:49:50 51° 260° (W) 21:56:45 435.675
DOVE 4 07 Jul 21:50:40 21:54:57 30° 263° (W) 21:58:59 437.250
COMPASS 1 07 Jul 22:03:30 22:07:18 34° 263° (W) 22:11:06 437.405
DX 1 07 Jul 22:03:49 22:06:25 16° 68° (ENE) 22:09:12 434.975-435.025
HUMSAT D 07 Jul 22:08:59 22:11:55 20° 70° (ENE) 22:14:59 437.325/437.525
CINEMA 3 07 Jul 22:09:27 22:13:40 39° 262° (W) 22:17:44 145.822/145.860
UKube-1 07 Jul 22:18:24 22:21:37 21° 69° (ENE) 22:24:57 .
ZACube-1 07 Jul 22:19:07 22:23:17 69° 77° (ENE) 22:27:25 437.345
Oscar 11 07 Jul 22:19:32 22:23:47 64° 259° (W) 22:28:04 145.826/435.025
AUBIESAT-1 07 Jul 22:23:23 22:27:48 78° 287° (WNW) 22:32:27 437.475
CUTE 1.7 + AOD 2 07 Jul 22:28:01 22:29:47 12° 270° (W) 22:31:19 437.475
CUBEBUG 2 07 Jul 22:33:10 22:37:17 45° 261° (W) 22:41:19 437.445
50 SAT 07 Jul 22:42:43 22:45:43 23° 72° (ENE) 22:48:49 437.505
FUNcube-1 07 Jul 22:53:48 22:57:49 44° 261° (W) 23:01:48 145.935
Cosmos 2499 07 Jul 22:54:26 23:02:23 64° 267° (W) 23:10:51 435.465 / 435.565
AISAT 07 Jul 22:55:12 22:59:12 33° 72° (ENE) 23:03:14 437.250
DELFI C3 07 Jul 22:59:46 23:03:16 28° 264° (W) 23:06:46 145.870
M-CUBED/EXP-1 PRIME 07 Jul 23:01:55 23:05:35 26° 293° (WNW) 23:09:21 437.505
CUBEBUG 1 07 Jul 23:02:04 23:05:18 21° 70° (ENE) 23:08:39 437.445
ANTELSAT 07 Jul 23:05:15 23:08:53 25° 95° (E) 23:12:41 437.575/2403.000
TIGRISAT 07 Jul 23:15:41 23:19:37 31° 97° (E) 23:23:40 435.000
UWE-3 07 Jul 23:17:47 23:20:45 18° 267° (W) 23:23:32 435.000/436.395/437.385
POPSAT HIP 1 07 Jul 23:21:05 23:22:59 13° 91° (E) 23:25:05 437.405
QB50P2 07 Jul 23:21:11 23:23:16 14° 91° (E) 23:25:34 145.880/145.840
DX 1 07 Jul 23:38:15 23:42:22 40° 261° (W) 23:46:30 434.975-435.025
PCSat 07 Jul 23:38:44 23:42:06 17° 48° (NE) 23:45:39 145.827
ESTCUBE 1 07 Jul 23:40:15 23:44:44 68° 76° (ENE) 23:49:16 437.505/2401.250
VELOX 1 07 Jul 23:42:43 23:47:11 71° 258° (WSW) 23:51:39 145.980
HUMSAT D 07 Jul 23:44:02 23:47:32 26° 264° (W) 23:50:58 437.325/437.525
SPROUT 07 Jul 23:49:55 23:52:53 19° 69° (ENE) 23:55:59 437.525
UKube-1 07 Jul 23:53:47 23:57:35 29° 263° (W) 00:01:21 .
UNISAT 6 07 Jul 23:56:39 00:01:06 82° 283° (WNW) 00:05:38 437.425
QB50P1 07 Jul 23:58:03 00:01:57 37° 98° (E) 00:05:53 145.935-145.965
NANOSAT C BR1 08 Jul 00:10:35 00:14:42 53° 100° (E) 00:18:48 145.865
TISAT 1 08 Jul 00:16:07 00:19:30 24° 71° (ENE) 00:22:58 437.305
DUCHIFAT 1 08 Jul 00:16:10 00:20:19 61° 101° (E) 00:24:27 145.980
BUGSAT 1 08 Jul 00:16:36 00:20:21 37° 98° (E) 00:24:05 437.445
50 SAT 08 Jul 00:17:25 00:20:18 20° 266° (W) 00:23:06 437.505
POLYITAN 1 08 Jul 00:26:06 00:30:20 87° 102° (ESE) 00:34:33 437.675
AISAT 08 Jul 00:32:38 00:35:52 19° 267° (W) 00:38:59 437.250
CUBEBUG 1 08 Jul 00:37:31 00:41:29 31° 264° (W) 00:45:24 437.445
ANTELSAT 08 Jul 00:41:55 00:45:37 26° 289° (WNW) 00:49:17 437.575/2403.000
TIGRISAT 08 Jul 00:52:52 00:56:12 21° 290° (WNW) 00:59:27 435.000
BEESAT 08 Jul 00:53:03 00:54:01 11° 64° (ENE) 00:55:17 436.000
POPSAT HIP 1 08 Jul 00:55:08 00:59:07 42° 286° (WNW) 01:03:04 437.405
QB50P2 08 Jul 00:55:25 00:59:24 40° 286° (WNW) 01:03:20 145.880/145.840
RS-15 08 Jul 00:57:48 01:06:42 32° 106° (ESE) 01:16:08 29.354- 29.394
SWISSCUBE 08 Jul 01:07:03 01:10:03 17° 67° (ENE) 01:13:15 437.505
SO-50 08 Jul 01:11:46 01:16:30 44° 55° (NE) 01:21:09 436.795
ITUPSAT 1 08 Jul 01:14:03 01:17:14 19° 68° (ENE) 01:20:36 437.325
PCSat 08 Jul 01:20:42 01:26:06 68° 247° (WSW) 01:31:27 145.827
Cosmos 2491 08 Jul 01:24:43 01:31:01 23° 67° (ENE) 01:37:40 435.465 / 435.565
SPROUT 08 Jul 01:24:54 01:28:46 31° 263° (W) 01:32:36 437.525
QB50P1 08 Jul 01:34:58 01:37:32 15° 291° (WNW) 01:39:57 145.935-145.965
NANOSAT C BR1 08 Jul 01:48:43 01:50:07 11° 293° (WNW) 01:51:18 145.865
TISAT 1 08 Jul 01:51:44 01:55:12 24° 265° (W) 01:58:35 437.305
BUGSAT 1 08 Jul 01:53:17 01:55:31 14° 292° (WNW) 01:57:36 437.445
YUBILEINY 08 Jul 01:56:57 02:00:56 15° 81° (E) 02:05:36 435.215
Oscar 19 08 Jul 01:59:11 02:03:31 28° 95° (E) 02:07:56 437.125/150
AIST 1 08 Jul 02:18:59 02:22:27 24° 75° (ENE) 02:25:59
ITAMSAT 1 08 Jul 02:22:05 02:23:03 11° 88° (E) 02:24:25 435.822/435.867
BEESAT 08 Jul 02:26:33 02:31:19 74° 259° (WSW) 02:36:07 436.000
Gurwin Techsat 1B 08 Jul 02:36:18 02:39:45 18° 92° (E) 02:43:24 435.225
KKS-1 08 Jul 02:39:26 02:42:55 23° 70° (ENE) 02:46:29 437.445
SWISSCUBE 08 Jul 02:43:01 02:47:36 44° 261° (W) 02:52:11 437.505
ITUPSAT 1 08 Jul 02:50:18 02:54:50 41° 262° (W) 02:59:23 437.325
SO-50 08 Jul 02:53:12 02:56:45 19° 250° (WSW) 03:00:05 436.795
RS-15 08 Jul 03:07:40 03:18:27 63° 306° (NW) 03:29:33 29.354- 29.394
Cosmos 2491 08 Jul 03:20:06 03:28:47 69° 267° (W) 03:37:21 435.465 / 435.565
STARS 08 Jul 03:21:03 03:25:09 40° 73° (ENE) 03:29:16 437.465
JAS-2 08 Jul 03:31:04 03:36:24 24° 93° (E) 03:42:21 435.910
Oscar 19 08 Jul 03:38:23 03:42:51 30° 290° (WNW) 03:47:14 437.125/150
AO-7 08 Jul 03:45:22 03:49:50 16° 89° (E) 03:54:54 29.400- 29.500
YUBILEINY 08 Jul 03:48:03 03:56:45 90° 345° (NNW) 04:05:30 435.215
AIST 1 08 Jul 03:56:36 04:00:02 23° 270° (W) 04:03:20
ITAMSAT 1 08 Jul 03:58:00 04:03:13 74° 286° (WNW) 04:08:23 435.822/435.867
Gurwin Techsat 1B 08 Jul 04:14:56 04:20:03 48° 287° (WNW) 04:25:07 435.225
KKS-1 08 Jul 04:15:37 04:19:27 27° 264° (W) 04:23:13 437.445
Cosmos 2504 08 Jul 04:25:50 04:26:40 10° 81° (E) 04:28:07 435.465 / 435.565
STARS 08 Jul 04:59:09 05:01:48 15° 268° (W) 05:04:16 437.465
MOZHAYETS 4 08 Jul 05:00:30 05:05:04 81° 77° (ENE) 05:09:42
HORYU 2 08 Jul 05:10:29 05:15:00 88° 284° (WNW) 05:19:29 437.375
JAS-2 08 Jul 05:14:57 05:21:45 61° 286° (WNW) 05:29:12 435.910
RS-15 08 Jul 05:26:17 05:33:56 20° 334° (NNW) 05:41:26 29.354- 29.394
AO-7 08 Jul 05:35:21 05:43:46 87° 287° (WNW) 05:52:07 29.400- 29.500
CUBESAT XI-V 08 Jul 05:40:08 05:43:00 17° 68° (ENE) 05:46:05 437.345
YUBILEINY 08 Jul 05:49:48 05:55:01 16° 297° (WNW) 05:59:40 435.215
ISS 08 Jul 05:50:33 05:52:25 15° 129° (SE) 05:54:23 145.825
VERMONT LUNAR 08 Jul 05:53:07 05:56:05 44° 152° (SSE) 05:59:03 437.305
Cosmos 2504 08 Jul 06:11:01 06:17:57 88° 97° (E) 06:24:56 435.465 / 435.565
STRAND 1 08 Jul 06:33:33 06:37:27 23° 68° (ENE) 06:41:31 437.568
BEESAT 3 08 Jul 06:44:13 06:48:16 87° 296° (WNW) 06:52:23 437.485
O/OREOS (USA 219) 08 Jul 06:44:14 06:48:24 41° 106° (ESE) 06:52:38 437.305
BEESAT 2 08 Jul 07:02:16 07:06:20 70° 300° (WNW) 07:10:28 435.950
CUTE-I 08 Jul 07:02:55 07:07:53 38° 97° (E) 07:12:51 437.470
DANDE 08 Jul 07:05:43 07:10:26 21° 94° (E) 07:14:39 436.750
PHONESAT 2.4 08 Jul 07:09:08 07:12:13 32° 149° (SSE) 07:15:19 2401.200-2431.200
AIST 2 08 Jul 07:10:19 07:14:00 30° 113° (ESE) 07:17:47 435.215
CUSAT 1 08 Jul 07:15:09 07:20:33 31° 97° (E) 07:24:56 437.405
CUBESAT XI-V 08 Jul 07:15:38 07:20:08 44° 262° (W) 07:24:38 437.345
PRISM 08 Jul 07:19:47 07:23:52 60° 76° (ENE) 07:28:02 437.425
ISS 08 Jul 07:25:29 07:28:35 42° 323° (NW) 07:31:41 145.825
VERMONT LUNAR 08 Jul 07:30:00 07:32:59 43° 347° (NNW) 07:35:58 437.305
AO-7 08 Jul 07:30:14 07:35:34 18° 304° (NW) 07:40:29 29.400- 29.500
Cubesat XI-IV 08 Jul 07:38:06 07:43:30 86° 101° (ESE) 07:48:52 437.490
RS-15 08 Jul 07:47:31 07:52:50 14° 10° (N) 07:58:31 29.354- 29.394
Cosmos 2504 08 Jul 08:08:30 08:11:20 12° 296° (WNW) 08:13:40 435.465 / 435.565
STRAND 1 08 Jul 08:11:42 08:16:28 37° 262° (W) 08:21:13 437.568
M-CUBED/EXP-1 PRIME 08 Jul 08:14:18 08:16:27 17° 65° (ENE) 08:18:46 437.505
O/OREOS (USA 219) 08 Jul 08:25:11 08:28:05 16° 302° (WNW) 08:30:50 437.305
GONETS M04 08 Jul 08:26:01 08:33:38 36° 87° (E) 08:41:24
BRITE-PL 08 Jul 08:36:30 08:40:15 32° 96° (E) 08:43:59 437.365/2234.400
CANX-2 08 Jul 08:43:18 08:45:06 13° 90° (E) 08:47:09 2200.000
CUTE-I 08 Jul 08:43:30 08:47:46 24° 292° (WNW) 08:51:53 437.470
DANDE 08 Jul 08:46:43 08:53:35 52° 280° (W) 08:58:48 436.750
PHONESAT 2.4 08 Jul 08:46:44 08:50:07 57° 344° (NNW) 08:53:31 2401.200-2431.200
AIST 2 08 Jul 08:49:09 08:52:36 23° 309° (NW) 08:56:00 435.215
CUSAT 1 08 Jul 08:57:57 09:03:04 27° 282° (WNW) 09:07:06 437.405
VERMONT LUNAR 08 Jul 09:07:22 09:10:13 33° 4° (N) 09:13:06 437.305
AUBIESAT-1 08 Jul 09:09:14 09:12:33 84° 73° (ENE) 09:16:03 437.475
HO-68 08 Jul 09:13:45 09:20:13 37° 97° (E) 09:26:47 435.675
SEEDS 08 Jul 09:19:26 09:22:55 25° 95° (E) 09:26:28 437.485
AAUSAT CUBESAT 2 08 Jul 09:20:36 09:23:13 16° 92° (E) 09:26:00 437.432
Cubesat XI-IV 08 Jul 09:21:22 09:22:57 11° 297° (WNW) 09:24:12 437.490
GOMX 1 08 Jul 09:28:17 09:32:27 79° 100° (E) 09:36:38 467.674
Cosmos 2499 08 Jul 09:38:54 09:42:42 16° 83° (E) 09:46:57 435.465 / 435.565
M-CUBED/EXP-1 PRIME 08 Jul 09:48:36 09:51:12 21° 260° (W) 09:53:49 437.505
COMPASS 1 08 Jul 09:49:18 09:53:21 44° 98° (E) 09:57:24 437.405
DOVE 4 08 Jul 09:51:52 09:56:01 89° 99° (E) 10:00:16 437.250
RS-15 08 Jul 10:00:06 10:10:24 35° 43° (NE) 10:21:17 29.354- 29.394
ANTELSAT 08 Jul 10:02:50 10:05:17 16° 69° (ENE) 10:07:54 437.575/2403.000
CINEMA 3 08 Jul 10:06:32 10:10:40 54° 100° (E) 10:14:56 145.822/145.860
Oscar 11 08 Jul 10:10:02 10:13:45 27° 95° (E) 10:17:31 145.826/435.025
ZACube-1 08 Jul 10:11:28 10:14:05 16° 93° (E) 10:16:54 437.345
TIGRISAT 08 Jul 10:12:41 10:15:39 19° 70° (ENE) 10:18:45 435.000
CUTE 1.7 + AOD 2 08 Jul 10:13:04 10:17:18 57° 285° (WNW) 10:21:30 437.475
BRITE-PL 08 Jul 10:15:53 10:18:36 16° 291° (WNW) 10:21:09 437.365/2234.400
CANX-2 08 Jul 10:17:12 10:21:19 45° 286° (WNW) 10:25:25 2200.000
GONETS M04 08 Jul 10:22:02 10:30:21 44° 285° (WNW) 10:38:33
PHONESAT 2.4 08 Jul 10:25:16 10:28:28 35° 1° (N) 10:31:41 2401.200-2431.200
CUBEBUG 2 08 Jul 10:26:36 10:30:39 42° 98° (E) 10:34:50 437.445
DELFI C3 08 Jul 10:41:04 10:44:57 43° 98° (E) 10:48:51 145.870
VERMONT LUNAR 08 Jul 10:44:13 10:47:20 81° 20° (NNE) 10:50:28 437.305
FUNcube-1 08 Jul 10:44:35 10:48:34 39° 98° (E) 10:52:41 145.935
QB50P1 08 Jul 10:48:38 10:51:43 20° 70° (ENE) 10:54:55 145.935-145.965
UNISAT 6 08 Jul 10:52:54 10:57:06 60° 75° (ENE) 11:01:19 437.425
AAUSAT CUBESAT 2 08 Jul 10:55:07 10:58:57 34° 287° (WNW) 11:02:44 437.432
SEEDS 08 Jul 10:55:10 10:58:37 23° 289° (WNW) 11:01:59 437.485
NANOSAT C BR1 08 Jul 11:00:36 11:04:09 27° 72° (ENE) 11:07:47 145.865
HO-68 08 Jul 11:01:26 11:07:56 38° 293° (WNW) 11:14:20 435.675
BUGSAT 1 08 Jul 11:04:28 11:07:26 19° 70° (ENE) 11:10:30 437.445
DUCHIFAT 1 08 Jul 11:05:51 11:09:33 31° 72° (ENE) 11:13:18 145.980
UWE-3 08 Jul 11:08:31 11:12:48 77° 282° (WNW) 11:17:10 435.000/436.395/437.385
POLYITAN 1 08 Jul 11:16:12 11:20:12 43° 74° (ENE) 11:24:14 437.675
COMPASS 1 08 Jul 11:26:27 11:28:40 14° 292° (WNW) 11:30:42 437.405
Cosmos 2499 08 Jul 11:28:07 11:35:07 69° 279° (W) 11:42:17 435.465 / 435.565
DX 1 08 Jul 11:29:16 11:33:22 41° 99° (E) 11:37:28 434.975-435.025
HUMSAT D 08 Jul 11:29:53 11:34:02 56° 100° (E) 11:38:11 437.325/437.525
VELOX 1 08 Jul 11:36:35 11:40:16 26° 96° (E) 11:43:59 145.980
ESTCUBE 1 08 Jul 11:36:57 11:39:56 18° 92° (E) 11:43:04 437.505/2401.250
ANTELSAT 08 Jul 11:37:48 11:41:48 38° 262° (W) 11:45:46 437.575/2403.000
UKube-1 08 Jul 11:43:26 11:47:42 55° 101° (E) 11:51:55 .
POPSAT HIP 1 08 Jul 11:44:30 11:48:45 85° 254° (WSW) 11:53:00 437.405
QB50P2 08 Jul 11:44:56 11:49:11 81° 259° (W) 11:53:26 145.880/145.840
CINEMA 3 08 Jul 11:46:15 11:47:32 11° 292° (WNW) 11:48:34 145.822/145.860
Oscar 11 08 Jul 11:46:24 11:49:48 22° 290° (WNW) 11:53:06 145.826/435.025
ZACube-1 08 Jul 11:46:39 11:50:35 36° 286° (WNW) 11:54:32 437.345
TIGRISAT 08 Jul 11:48:29 11:52:15 30° 263° (W) 11:55:58 435.000
50 SAT 08 Jul 11:54:35 11:58:25 52° 99° (E) 12:02:16 437.505
PHONESAT 2.4 08 Jul 12:03:22 12:06:47 64° 18° (NNE) 12:10:13 2401.200-2431.200
CUBEBUG 2 08 Jul 12:04:38 12:07:04 15° 291° (WNW) 12:09:21 437.445
RS-15 08 Jul 12:12:11 12:23:56 72° 245° (WSW) 12:36:01 29.354- 29.394
DELFI C3 08 Jul 12:17:44 12:19:42 13° 292° (WNW) 12:21:26 145.870
ISS 08 Jul 12:21:05 12:21:16 10° 21° (NNE) 12:21:31 145.825
VERMONT LUNAR 08 Jul 12:21:47 12:23:59 17° 214° (SW) 12:26:08 437.305
FUNcube-1 08 Jul 12:22:01 12:24:38 16° 291° (WNW) 12:27:07 145.935
QB50P1 08 Jul 12:23:45 12:27:26 28° 264° (W) 12:31:04 145.935-145.965
AISAT 08 Jul 12:24:36 12:29:01 79° 282° (WNW) 12:33:23 437.250
CUBEBUG 1 08 Jul 12:28:42 12:32:59 58° 100° (E) 12:37:15 437.445
NANOSAT C BR1 08 Jul 12:36:46 12:40:00 20° 266° (W) 12:43:07 145.865
BUGSAT 1 08 Jul 12:39:00 12:42:44 29° 264° (W) 12:46:24 437.445
DUCHIFAT 1 08 Jul 12:42:26 12:45:26 18° 267° (W) 12:48:17 145.980
POLYITAN 1 08 Jul 12:54:20 12:56:22 13° 269° (W) 12:58:11 437.675
DX 1 08 Jul 13:06:42 13:09:19 15° 292° (WNW) 13:11:45 434.975-435.025
HUMSAT D 08 Jul 13:08:14 13:09:21 11° 293° (WNW) 13:10:13 437.325/437.525
ESTCUBE 1 08 Jul 13:12:47 13:16:57 36° 288° (WNW) 13:21:03 437.505/2401.250
VELOX 1 08 Jul 13:13:11 13:16:44 23° 290° (WNW) 13:20:09 145.980
Oscar 19 08 Jul 13:13:20 13:17:44 31° 70° (ENE) 13:22:14 437.125/150
SPROUT 08 Jul 13:13:53 13:18:03 52° 100° (E) 13:22:14 437.525
UKube-1 08 Jul 13:21:49 13:23:24 12° 294° (WNW) 13:24:44 .
ITAMSAT 1 08 Jul 13:36:41 13:39:12 14° 65° (ENE) 13:41:59 435.822/435.867
TISAT 1 08 Jul 13:38:03 13:42:12 65° 101° (E) 13:46:20 437.305
PHONESAT 2.4 08 Jul 13:41:40 13:44:38 27° 212° (SSW) 13:47:36 2401.200-2431.200
Gurwin Techsat 1B 08 Jul 13:54:36 13:58:34 23° 68° (ENE) 14:02:41 435.225
ISS 08 Jul 13:55:05 13:58:17 56° 40° (NE) 14:01:27 145.825
YUBILEINY 08 Jul 14:02:07 14:10:07 39° 74° (ENE) 14:18:15 435.215
CUBEBUG 1 08 Jul 14:07:34 14:08:53 11° 294° (WNW) 14:09:57 437.445
JUGNU 08 Jul 14:15:18 14:16:04 10° 166° (SSE) 14:16:58 437.505
PCSat 08 Jul 14:17:23 14:21:32 24° 108° (ESE) 14:25:51 145.827
Cosmos 2491 08 Jul 14:22:25 14:29:25 29° 86° (E) 14:36:43 435.465 / 435.565
RS-15 08 Jul 14:29:29 14:34:56 13° 260° (W) 14:39:09 29.354- 29.394
BEESAT 08 Jul 14:29:55 14:34:18 35° 97° (E) 14:38:41 436.000
AO-7 08 Jul 14:41:41 14:47:06 20° 57° (ENE) 14:52:54 29.400- 29.500
SWISSCUBE 08 Jul 14:45:58 14:50:42 59° 100° (E) 14:55:26 437.505
AIST 1 08 Jul 14:46:11 14:48:54 17° 88° (E) 14:51:47
SPROUT 08 Jul 14:52:04 14:53:44 12° 293° (WNW) 14:55:09 437.525
Oscar 19 08 Jul 14:52:45 14:57:06 27° 265° (W) 15:01:22 437.125/150
ITUPSAT 1 08 Jul 14:53:27 14:58:15 63° 101° (E) 15:03:00 437.325
BEESAT 3 08 Jul 15:05:57 15:09:11 23° 51° (NE) 15:12:26 437.485
